Temperature
10 10 10 10 9 9 8 8 8 7 7 7 7 6 6 6 6 5 6 6 6 6 6 6 6 7 7 7 8 8 8 8 8 8 9 9 10 10 10 10 11 11 11
9 9 9 9 9 8 7 7 6 6 6 6 6 5 5 4 4 4 4 4 4 5 5 5 5 5 5 6 6 6 7 7 7 7 8 8 9 9 10 10 10 10 10
8 8 8 7 7 6 6 5 5 5 5 5 4 4 4 3 3 3 3 3 3 3 4 4 4 4 4 5 4 5 5 6 6 6 7 7 8 8 8 9 9 9 9
8 7 6 6 5 5 4 4 4 4 4 4 3 3 3 2 2 2 2 3 3 3 3 3 3 3 3 3 3 3 4 5 5 6 7 7 7 7 8 8 8 8 8
6 5 5 4 4 4 4 3 3 3 2 2 2 2 1 1 1 2 2 2 2 2 2 2 3 3 3 2 2 2 2 3 3 4 5 6 7 7 7 7 7 7 8
4 4 4 4 3 3 3 2 2 2 2 1 1 1 1 1 1 1 1 0 1 1 1 2 2 2 1 1 2 2 1 1 2 3 3 4 5 6 6 6 6 6 6
3 3 3 2 2 2 1 1 0 0 -0 -0 -1 -1 -1 -1 -0 -0 -1 -1 -1 -1 -1 -0 0 0 -1 -0 1 1 0 -0 -0 1 2 2 3 4 5 6 6 5 6
2 2 2 1 1 0 -0 -0 -1 -1 -1 -2 -2 -2 -2 -2 -1 -1 -2 -2 -2 -2 -3 -2 -2 -2 -3 -2 -2 -2 -1 -1 -0 0 1 1 2 2 3 3 4 5 5
2 2 1 0 -0 -1 -1 -1 -1 -2 -2 -3 -3 -3 -3 -2 -2 -3 -3 -3 -3 -4 -4 -3 -3 -4 -4 -4 -3 -3 -2 -1 -1 0 1 1 1 2 3 3 4 4 4
1 0 -1 -1 -2 -2 -2 -2 -3 -3 -3 -3 -3 -3 -3 -4 -4 -4 -4 -5 -5 -5 -5 -5 -4 -4 -4 -4 -4 -3 -2 -1 -1 -1 -0 1 1 2 2 3 3 3 3
-1 -1 -2 -2 -2 -3 -3 -3 -3 -4 -4 -4 -5 -5 -5 -5 -5 -5 -5 -5 -5 -5 -5 -5 -5 -5 -5 -5 -4 -3 -2 -2 -2 -2 -2 -0 1 1 2 2 2 2 2
-2 -2 -2 -2 -3 -3 -4 -4 -4 -5 -5 -5 -6 -7 -7 -6 -6 -6 -6 -5 -5 -6 -6 -6 -6 -6 -5 -4 -4 -3 -3 -3 -3 -3 -3 -2 -1 -0 0 1 1 1 1
-2 -2 -2 -3 -3 -4 -5 -5 -5 -6 -6 -7 -8 -8 -7 -7 -7 -7 -6 -6 -6 -6 -6 -6 -6 -6 -5 -5 -5 -5 -5 -4 -4 -4 -4 -4 -3 -2 -2 -2 -2 -2 -2
-3 -3 -3 -4 -5 -5 -5 -6 -6 -7 -8 -8 -8 -8 -8 -8 -7 -7 -7 -7 -7 -7 -7 -7 -7 -7 -7 -7 -6 -6 -5 -5 -5 -5 -5 -4 -4 -4 -4 -4 -4 -3 -3
-3 -4 -4 -5 -6 -6 -6 -6 -7 -8 -9 -8 -8 -8 -8 -8 -7 -7 -7 -7 -7 -7 -7 -8 -8 -8 -8 -8 -7 -6 -6 -6 -6 -6 -5 -5 -5 -5 -4 -4 -5 -4 -3
-4 -4 -5 -6 -6 -7 -7 -7 -7 -8 -9 -9 -8 -8 -8 -8 -8 -7 -7 -7 -8 -8 -9 -9 -9 -9 -9 -9 -8 -7 -7 -6 -6 -6 -5 -5 -5 -5 -5 -5 -5 -5 -5
-5 -6 -6 -7 -7 -8 -8 -9 -9 -9 -9 -9 -9 -9 -9 -8 -8 -8 -8 -8 -8 -9 -10 -10 -10 -10 -10 -9 -9 -8 -8 -7 -7 -6 -6 -6 -6 -6 -6 -6 -6 -5 -5
-6 -7 -7 -8 -8 -9 -9 -10 -10 -10 -10 -10 -9 -10 -9 -9 -9 -8 -8 -9 -9 -9 -10 -10 -10 -10 -10 -9 -9 -9 -8 -7 -7 -7 -7 -7 -7 -7 -7 -6 -6 -6 -6
-7 -8 -8 -9 -9 -9 -10 -10 -10 -10 -10 -10 -10 -10 -10 -9 -9 -9 -9 -9 -10 -10 -10 -10 -11 -11 -10 -10 -9 -8 -8 -8 -7 -7 -7 -7 -7 -7 -7 -7 -6 -6 -6
-8 -9 -9 -10 -10 -10 -10 -10 -10 -10 -10 -10 -10 -10 -10 -10 -10 -10 -10 -10 -10 -10 -10 -11 -11 -11 -11 -10 -9 -8 -8 -8 -7 -7 -7 -7 -7 -7 -7 -6 -6 -6 -6
-9 -9 -10 -10 -10 -10 -10 -10 -10 -10 -10 -10 -10 -10 -10 -10 -10 -10 -10 -10 -10 -11 -11 -11 -11 -11 -11 -10 -9 -8 -8 -8 -8 -7 -7 -7 -7 -7 -6 -6 -6 -6 -5
-10 -10 -10 -10 -10 -10 -10 -10 -10 -10 -11 -11 -11 -11 -11 -11 -11 -11 -11 -11 -11 -11 -11 -11 -11 -11 -10 -9 -9 -8 -8 -8 -8 -7 -8 -7 -7 -6 -6 -6 -5 -5 -5
-10 -10 -10 -10 -11 -11 -10 -10 -11 -11 -11 -11 -11 -11 -12 -12 -12 -12 -11 -11 -11 -11 -11 -11 -11 -10 -10 -9 -8 -8 -8 -8 -8 -7 -7 -7 -6 -6 -6 -5 -5 -5 -5
-11 -11 -11 -11 -11 -11 -11 -11 -11 -11 -11 -11 -12 -12 -12 -12 -12 -12 -12 -12 -11 -11 -11 -11 -11 -10 -9 -9 -8 -8 -8 -8 -7 -7 -7 -6 -6 -5 -5 -5 -5 -5 -5
-11 -11 -11 -11 -11 -11 -11 -12 -12 -12 -12 -12 -12 -12 -12 -12 -12 -12 -12 -12 -12 -11 -11 -11 -10 -10 -9 -9 -8 -8 -8 -7 -7 -7 -6 -6 -5 -5 -5 -5 -5 -5 -5
-11 -11 -11 -12 -12 -12 -12 -12 -12 -12 -12 -12 -12 -12 -12 -12 -12 -12 -12 -12 -12 -12 -11 -11 -10 -9 -9 -8 -8 -8 -8 -7 -7 -6 -6 -5 -5 -5 -5 -5 -5 -5 -5
Wind_Speed
9 8 8 8 8 7 8 9 10 10 12 12 13 13 13 13 13 13 14 15 14 14 13 14 14 14 12 12 11 12 12 14 20 20 14 14 13 10 10 10 11 12 15
7 7 7 8 9 10 11 12 12 12 13 14 14 14 14 14 14 14 15 14 13 16 16 15 15 14 15 14 13 13 14 15 17 21 18 12 13 11 12 12 11 11 10
7 8 8 9 10 10 11 12 13 14 14 15 15 16 16 15 15 15 14 13 15 15 15 14 13 14 15 14 15 14 14 15 15 18 20 14 12 10 7 10 10 8 8
7 8 8 9 9 10 11 13 14 15 15 15 16 17 17 16 17 15 15 17 15 15 13 11 11 13 15 17 15 15 16 17 16 17 18 15 14 8 4 8 9 6 7
8 8 8 8 9 10 12 13 14 14 15 15 16 17 17 15 16 19 20 20 20 16 10 10 10 14 18 17 17 17 17 16 15 15 16 15 13 8 7 6 9 8 7
6 6 8 9 11 12 13 14 15 15 16 16 16 17 17 16 23 28 26 22 18 14 14 15 15 16 16 24 26 24 23 22 19 16 16 17 17 15 11 10 10 10 6
6 7 9 11 12 13 13 14 14 15 15 15 15 16 17 18 26 31 29 17 15 15 15 17 18 16 16 19 24 27 26 28 25 20 19 20 19 19 18 14 11 13 12
6 7 10 11 12 12 12 13 13 13 13 14 15 16 16 18 28 29 25 17 15 14 14 16 17 14 16 22 21 22 23 23 22 18 17 20 20 20 19 19 17 11 5
8 9 10 10 12 13 13 14 13 13 14 14 14 15 16 18 25 26 26 16 15 16 16 17 17 17 24 30 24 23 25 23 21 24 24 26 29 29 23 17 13 9 7
9 9 9 9 11 12 13 12 12 13 14 15 16 15 17 18 22 29 28 14 14 14 14 15 21 25 31 34 25 23 22 22 21 21 20 20 19 17 16 12 12 12 7
8 8 8 8 10 11 11 12 13 14 14 14 15 15 15 16 20 28 30 16 14 14 13 13 15 30 36 36 30 19 21 24 21 18 17 15 11 7 7 6 6 7 6
8 9 9 9 10 11 12 12 12 13 13 14 14 14 12 13 19 24 29 27 24 17 15 14 17 33 36 32 24 24 30 25 15 15 14 13 12 9 5 4 3 4 4
8 9 9 10 10 10 10 12 12 11 11 12 13 13 13 13 15 24 27 29 28 20 16 23 29 32 28 21 25 29 23 14 14 14 14 13 10 5 3 3 5 8 12
9 10 10 9 11 10 9 10 11 11 11 12 13 14 14 13 12 13 14 17 21 18 17 20 25 24 22 21 20 17 12 13 14 14 12 12 8 2 1 1 1 4 7
9 9 9 8 10 10 11 11 12 12 14 16 14 14 14 15 18 26 23 18 16 19 20 12 12 14 15 14 14 14 13 13 14 13 12 11 7 1 1 1 1 3 4
9 9 9 10 9 10 12 15 19 20 26 26 26 22 18 22 29 32 31 29 27 28 18 12 12 14 15 15 16 16 16 16 15 14 12 10 6 3 3 2 2 4 6
9 10 10 10 10 11 12 13 16 18 22 24 25 26 26 27 30 32 30 25 24 22 13 12 12 14 15 16 16 17 18 17 16 12 11 9 4 3 3 4 4 4 5
9 13 11 10 10 11 12 12 12 15 16 15 19 24 27 29 30 30 28 20 15 12 10 11 12 14 16 15 16 17 18 17 14 12 9 7 3 1 3 4 4 4 5
10 9 9 9 10 12 12 12 12 13 14 14 14 17 22 25 27 23 20 11 10 11 10 11 12 14 15 14 15 16 18 17 16 12 8 4 1 2 3 4 4 7 5
9 14 14 10 10 11 11 12 12 13 13 13 14 13 15 17 12 11 10 8 8 10 11 12 13 14 14 14 16 16 17 16 15 10 7 3 1 2 3 4 5 5 4
9 10 15 12 10 11 11 12 12 12 11 12 12 16 24 17 12 13 11 8 8 10 11 12 13 14 13 15 16 16 17 15 12 8 5 3 3 3 4 5 6 5 4
8 9 9 10 11 11 12 12 11 12 12 13 12 14 23 15 11 12 11 9 9 9 10 11 12 13 13 14 16 17 17 15 11 6 3 3 4 4 5 6 5 4 5
9 10 11 11 11 14 14 11 10 11 12 12 11 10 12 12 11 11 11 10 10 11 11 11 12 13 14 14 15 15 15 12 8 3 2 3 4 4 5 5 4 4 4
10 10 11 11 12 13 12 11 11 12 14 12 12 12 11 10 12 12 11 10 11 12 12 11 12 15 18 17 15 14 12 8 4 2 3 4 4 5 5 5 5 4 3
9 10 11 11 11 12 12 12 12 12 12 13 13 12 12 11 11 11 10 11 11 12 12 12 13 15 20 21 20 17 13 6 2 3 4 5 6 6 6 5 4 3 3
10 11 11 10 10 10 10 11 12 11 11 11 11 11 11 11 11 10 10 11 12 12 12 13 15 18 20 18 19 17 10 4 5 7 6 6 7 6 6 5 4 4 4
Wind_Direction
19 15 16 13 7 5 2 352 346 341 338 335 331 327 324 321 320 317 314 312 313 314 313 309 305 305 306 303 299 295 291 288 288 291 288 280 266 246 243 238 235 236 239
7 8 12 12 9 6 359 353 348 344 341 338 335 332 329 326 322 317 312 315 321 317 313 309 309 315 312 310 306 301 299 296 291 291 291 284 273 254 243 247 247 243 245
7 11 14 11 4 356 351 347 345 342 339 338 336 332 328 325 324 318 312 320 316 310 306 306 309 312 310 310 310 308 305 299 293 288 287 287 281 271 252 256 262 263 253
12 12 10 0 354 348 345 345 342 339 337 336 334 330 326 325 325 320 324 320 313 307 299 296 301 309 311 311 309 307 305 301 300 295 287 283 280 276 239 265 268 254 254
8 6 355 347 347 346 344 341 337 335 334 332 330 328 325 325 323 323 325 321 314 303 294 294 297 303 299 308 317 313 313 312 308 307 303 297 284 272 269 260 260 261 230
2 354 348 352 350 347 343 339 336 333 331 330 328 325 325 324 320 321 322 320 318 318 320 322 317 312 313 324 316 313 314 310 307 306 302 299 297 291 279 270 275 269 252
356 353 355 352 346 341 336 332 330 327 324 324 321 321 320 318 317 319 322 331 326 322 323 323 318 316 326 321 316 316 315 308 303 298 295 292 296 299 297 282 276 274 266
354 356 351 346 339 333 329 326 322 321 322 319 318 319 316 316 314 320 332 334 322 318 319 317 311 315 320 318 318 316 312 306 297 286 280 284 284 287 288 291 287 281 309
355 348 341 336 331 329 326 323 320 319 316 314 316 315 314 313 316 324 329 327 323 322 320 314 311 312 313 318 318 310 306 302 297 287 276 277 277 278 278 278 273 251 248
336 329 327 324 322 320 316 314 314 314 312 314 311 311 310 311 314 321 323 322 316 314 312 312 313 314 316 316 313 305 302 309 316 316 306 293 286 284 287 278 266 255 233
316 313 312 313 315 313 313 313 312 310 309 308 306 307 305 306 313 318 320 321 314 315 317 316 313 313 314 311 306 303 311 316 314 313 308 307 304 293 285 275 267 261 223
311 310 312 312 312 313 309 308 309 309 310 309 307 306 307 309 310 314 316 317 323 324 318 313 312 313 311 310 313 319 320 319 312 309 307 309 307 297 294 314 353 34 56
310 307 308 310 308 305 306 309 310 310 309 308 309 310 310 309 309 310 312 320 324 321 314 316 320 319 320 321 320 321 322 316 309 309 309 309 304 308 349 357 46 71 74
309 306 304 304 310 311 308 307 307 309 308 307 307 307 305 302 301 301 310 316 318 320 317 321 322 324 323 319 317 315 315 310 310 308 306 305 303 307 1 0 39 82 80
301 298 302 305 307 310 309 307 305 301 301 308 309 307 306 304 304 313 318 319 321 325 328 324 324 325 319 316 316 318 317 316 315 315 310 304 297 261 157 115 61 45 77
306 310 310 310 308 310 310 307 303 306 311 313 313 310 309 307 311 315 318 321 326 334 329 318 320 319 316 318 320 320 319 320 318 317 312 302 287 218 180 124 82 95 115
297 303 306 308 309 308 306 303 305 310 313 315 314 314 313 313 315 315 316 321 328 332 320 314 317 317 315 318 320 319 318 317 317 315 311 305 280 210 173 131 116 112 111
294 301 302 298 298 297 297 300 305 310 314 314 314 313 314 316 316 317 321 326 322 318 313 315 316 316 315 316 319 318 314 315 319 319 316 308 289 191 134 135 131 114 112
294 293 291 291 295 300 302 303 305 305 307 308 310 312 312 313 316 318 320 314 308 309 314 317 315 314 312 315 317 314 312 315 320 323 319 310 312 112 112 113 119 125 121
290 296 304 304 301 301 300 300 302 304 303 303 307 312 314 314 320 318 312 305 304 308 312 314 315 313 314 318 315 313 313 317 321 320 316 318 31 79 91 94 89 93 90
293 296 303 305 297 294 296 298 299 298 298 301 305 309 315 326 327 318 314 314 312 310 310 312 314 312 315 316 313 312 313 316 319 317 321 350 35 59 73 77 78 89 100
295 298 299 296 294 294 295 298 301 301 299 299 302 307 316 323 315 310 313 316 312 307 306 308 309 311 314 313 311 311 313 315 319 320 339 24 51 63 72 78 78 74 72
300 296 295 293 293 296 298 297 294 296 298 299 303 311 315 313 311 312 315 316 313 309 309 308 307 311 312 310 308 308 309 313 317 320 17 51 60 68 78 86 83 69 56
298 297 296 296 298 301 303 301 298 300 304 309 311 310 309 307 308 310 312 312 309 306 306 306 306 308 309 311 311 311 309 315 328 35 75 81 78 84 82 74 63 58 47
303 300 299 300 303 304 305 305 304 304 306 305 304 305 306 306 305 305 306 307 305 305 306 308 309 311 312 313 313 313 321 339 65 82 80 87 89 83 79 72 61 51 48
305 303 304 304 303 302 301 300 298 296 294 294 295 295 297 299 300 299 300 303 306 308 308 309 311 313 314 315 314 322 345 48 94 99 93 92 92 86 84 78 66 58 54
Height
1478 1475 1473 1470 1467 1463 1459 1454 1449 1445 1440 1435 1429 1424 1420 1416 1411 1406 1400 1396 1391 1386 1382 1378 1372 1367 1362 1357 1353 1349 1343 1339 1329 1318 1320 1318 1316 1313 1310 1308 1306 1305 1304
1475 1472 1469 1466 1462 1458 1453 1449 1444 1439 1434 1429 1424 1418 1413 1409 1405 1401 1395 1390 1385 1380 1375 1370 1365 1360 1355 1351 1346 1341 1336 1331 1325 1314 1306 1304 1302 1300 1297 1296 1294 1293 1291
1472 1469 1466 1461 1457 1452 1448 1443 1439 1434 1429 1424 1420 1415 1409 1403 1399 1395 1391 1385 1380 1374 1369 1364 1359 1354 1349 1345 1340 1333 1327 1322 1317 1309 1298 1294 1290 1289 1286 1283 1281 1279 1277
1470 1467 1462 1457 1453 1448 1444 1439 1434 1429 1424 1419 1415 1410 1405 1399 1395 1391 1386 1380 1373 1368 1364 1359 1353 1349 1344 1339 1333 1327 1320 1314 1308 1301 1292 1285 1281 1279 1276 1273 1268 1266 1265
1467 1463 1459 1454 1449 1445 1440 1435 1431 1426 1421 1415 1410 1404 1400 1395 1391 1387 1381 1374 1366 1360 1356 1352 1347 1342 1337 1334 1329 1321 1313 1307 1300 1294 1287 1280 1273 1268 1266 1264 1258 1255 1252
1463 1459 1455 1451 1446 1441 1437 1433 1428 1423 1417 1411 1406 1401 1395 1389 1385 1381 1376 1368 1362 1356 1350 1345 1340 1334 1331 1326 1319 1313 1308 1302 1294 1287 1281 1275 1269 1265 1260 1256 1252 1248 1240
1459 1455 1451 1446 1442 1438 1433 1430 1425 1419 1413 1407 1402 1397 1389 1385 1380 1375 1370 1363 1358 1352 1345 1339 1333 1329 1323 1317 1309 1301 1296 1291 1288 1282 1273 1264 1260 1257 1253 1248 1242 1241 1234
1454 1450 1446 1441 1437 1434 1430 1425 1420 1414 1408 1404 1397 1391 1385 1380 1376 1371 1364 1357 1350 1345 1339 1334 1328 1321 1317 1311 1301 1291 1284 1279 1275 1269 1264 1256 1251 1246 1243 1239 1235 1230 1226
1451 1447 1442 1438 1433 1429 1425 1420 1416 1409 1404 1398 1392 1386 1379 1374 1371 1366 1359 1350 1344 1338 1333 1327 1321 1315 1310 1305 1296 1286 1277 1268 1263 1258 1252 1245 1240 1235 1231 1226 1222 1218 1212
1446 1442 1438 1434 1429 1424 1420 1416 1411 1405 1399 1393 1387 1381 1374 1369 1365 1360 1354 1347 1339 1333 1327 1321 1316 1309 1302 1296 1290 1281 1271 1263 1255 1245 1239 1234 1228 1223 1219 1214 1210 1206 1201
1442 1439 1435 1430 1425 1421 1416 1412 1406 1400 1393 1387 1382 1376 1369 1364 1359 1354 1349 1343 1335 1328 1321 1314 1308 1301 1293 1286 1281 1275 1267 1258 1248 1238 1229 1222 1217 1212 1207 1203 1199 1195 1191
1438 1435 1431 1425 1421 1415 1411 1406 1400 1394 1387 1381 1375 1369 1363 1358 1354 1348 1343 1338 1331 1324 1315 1308 1300 1293 1285 1278 1273 1267 1260 1251 1241 1230 1222 1214 1208 1202 1198 1193 1189 1185 1184
1433 1429 1424 1420 1415 1410 1406 1400 1394 1388 1382 1376 1371 1364 1358 1353 1347 1342 1337 1331 1324 1318 1310 1302 1295 1287 1279 1271 1265 1259 1251 1243 1234 1225 1217 1210 1204 1198 1192 1188 1185 1182 1180
1428 1424 1419 1414 1409 1405 1401 1396 1389 1383 1378 1373 1367 1361 1354 1348 1342 1337 1331 1324 1317 1310 1302 1295 1288 1281 1274 1267 1259 1252 1244 1237 1230 1221 1212 1205 1199 1194 1190 1187 1184 1181 1179
1423 1418 1413 1409 1405 1399 1394 1390 1385 1379 1376 1371 1364 1357 1351 1343 1337 1333 1327 1320 1313 1305 1298 1289 1282 1275 1267 1260 1253 1246 1240 1232 1223 1215 1208 1201 1196 1191 1188 1186 1184 1183 1182
1417 1413 1409 1405 1399 1393 1387 1382 1376 1374 1369 1364 1358 1353 1346 1341 1334 1328 1322 1316 1309 1302 1294 1286 1279 1271 1264 1256 1248 1241 1234 1227 1219 1211 1204 1197 1192 1189 1186 1185 1185 1185 1185
1413 1408 1403 1399 1393 1388 1382 1376 1368 1362 1360 1356 1351 1346 1341 1335 1329 1322 1317 1311 1305 1299 1291 1283 1276 1268 1261 1254 1247 1239 1229 1222 1215 1207 1200 1194 1189 1187 1185 1185 1186 1187 1187
1407 1403 1398 1392 1387 1382 1376 1371 1366 1359 1352 1346 1343 1339 1334 1329 1323 1317 1311 1306 1299 1293 1287 1280 1273 1265 1258 1251 1244 1235 1226 1218 1211 1204 1198 1192 1187 1185 1184 1185 1186 1187 1188
1400 1396 1391 1386 1381 1376 1371 1366 1361 1356 1350 1343 1337 1332 1328 1322 1317 1312 1307 1302 1295 1288 1282 1276 1269 1262 1255 1249 1240 1231 1223 1215 1208 1201 1195 1190 1186 1185 1185 1185 1187 1189 1191
1393 1389 1385 1380 1375 1370 1366 1361 1356 1351 1345 1339 1334 1328 1322 1316 1310 1306 1302 1297 1292 1286 1280 1273 1266 1259 1252 1245 1235 1227 1219 1211 1205 1199 1194 1190 1187 1186 1187 1188 1190 1192 1193
1386 1381 1377 1374 1369 1364 1360 1355 1350 1346 1341 1335 1330 1325 1321 1315 1308 1302 1297 1293 1288 1282 1276 1269 1262 1255 1248 1240 1231 1223 1215 1209 1204 1199 1195 1193 1191 1191 1192 1193 1194 1196 1197
1379 1374 1371 1367 1362 1358 1354 1350 1346 1341 1336 1330 1325 1320 1316 1311 1305 1299 1295 1290 1284 1279 1272 1266 1259 1252 1244 1236 1228 1220 1213 1208 1204 1201 1198 1196 1196 1196 1196 1197 1199 1199 1200
1372 1368 1364 1360 1355 1352 1347 1343 1339 1335 1330 1325 1320 1315 1311 1306 1301 1296 1291 1285 1280 1274 1268 1262 1255 1248 1241 1233 1226 1220 1214 1209 1206 1202 1200 1200 1200 1201 1201 1202 1202 1203 1203
1366 1362 1358 1353 1349 1345 1341 1337 1333 1329 1325 1320 1315 1311 1306 1301 1296 1292 1286 1281 1275 1269 1264 1258 1251 1245 1237 1230 1224 1218 1213 1209 1206 1204 1204 1204 1205 1205 1206 1206 1206 1206 1206
1359 1355 1351 1346 1342 1338 1334 1331 1327 1323 1319 1314 1310 1305 1301 1296 1291 1287 1282 1276 1271 1265 1259 1254 1247 1241 1234 1227 1221 1216 1213 1210 1208 1207 1207 1208 1209 1210 1211 1211 1210 1210 1209
1352 1348 1343 1339 1335 1331 1327 1323 1320 1316 1312 1308 1303 1299 1295 1291 1287 1282 1277 1272 1266 1261 1256 1249 1244 1238 1231 1225 1220 1217 1215 1212 1211 1211 1212 1213 1214 1215 1216 1216 1215 1215 1214